Delta Virtual Airport Information Service

San Francisco International Airport

ICAO: KSFO Country: United States
Latitude: 37.619 Longitude: -122.374
Latest Arrival : UAL2348 (KPDX-KSFO) Latest Departure : DAC2541 (KSFO-KSDF)


WX CaptureLIVE
Data provided by noaa.gov | Fetched at 09:36:20

METAR : KSFO 041356Z 26005KT 10SM BKN006 14/12 A2997 RMK AO2 SLP150 T01440122

TAF : KSFO 041120Z 0412/0518 27010KT P6SM FEW004 BKN006 OVC008 FM041300 27008KT P6SM FEW004 BKN006 OVC008 FM041830 28015KT P6SM FEW008 SCT010 FM042100 28021G27KT P6SM SKC FM050600 27016KT P6SM BKN010 FM051000 27012KT P6SM OVC010


Runway Data for KSFO
Data provided by openaviationdata.com

Runway ID Mag Var Hdg Length Elevation Surface ILS Freq ILS Id ILS Slope
01L 15 12° 7506 ft 13 ft Asphalt -- -- --
01R 15 12° 8654 ft 13 ft Asphalt -- -- --
10L 15 102° 11861 ft 13 ft Asphalt -- -- --
10R 15 102° 10594 ft 13 ft Asphalt -- -- --
19L 15 192° 8654 ft 13 ft Asphalt 108.9 ISIA 2
19R 15 192° 7506 ft 13 ft Asphalt -- -- --
28L 15 282° 10594 ft 13 ft Asphalt 109.55 ISFO 3
28R 15 282° 11861 ft 13 ft Asphalt 111.7 IGWQ 3

San Francisco International Airport, United States
Use only for reference purposes



Not for navigational purposes.